Location: Aufkirchen
(47.9603°N, 11.3653°E)
Time: 17:12:03
(UTC+02:00)

ISS - Visible Passes

Search period start: 16 May 2021 00:00
Search period end: 26 May 2021 00:00
Orbit: 417 x 422 km, 51.6° (Epoch: 15 May)

Date Brightness Start Highest point End Pass type
(mag) Time Alt. Az. Time Alt. Az. Time Alt. Az.
16 May -2.5 01:17:22 10° WNW 01:20:37 42° N 01:23:51 10° ENE visible
16 May -3.8 02:54:17 10° WNW 02:57:40 85° NNE 03:01:02 10° ESE visible
16 May -2.4 04:31:34 10° W 04:34:09 21° SW 04:36:45 10° S visible
16 May -3.8 22:52:37 10° WSW 22:55:59 83° NNW 22:59:22 10° ENE visible
17 May -2.5 00:29:49 10° WNW 00:33:03 42° N 00:36:18 10° ENE visible
17 May -3.4 02:06:50 10° WNW 02:10:11 65° NNE 02:13:33 10° E visible
17 May -3.0 03:43:49 10° W 03:46:51 31° SW 03:49:52 10° SSE visible
17 May -3.9 22:05:11 10° WSW 22:08:32 71° SSE 22:11:54 10° ENE visible
17 May -2.6 23:42:15 10° W 23:45:30 45° N 23:48:46 10° ENE visible
18 May -3.0 01:19:21 10° WNW 01:22:40 52° NNE 01:22:52 51° NNE visible
18 May -2.9 22:54:39 10° W 22:57:57 51° NNW 23:01:16 10° ENE visible
19 May -2.7 00:31:52 10° WNW 00:35:07 46° N 00:36:27 29° ENE visible
19 May -1.3 02:08:43 10° WNW 02:09:22 15° WNW 02:09:22 15° WNW visible
19 May -3.3 22:07:05 10° W 22:10:26 63° NNW 22:13:47 10° ENE visible
19 May -2.5 23:44:20 10° WNW 23:47:34 42° N 23:50:16 14° ENE visible
20 May -2.4 01:21:14 10° WNW 01:23:11 32° WNW 01:23:11 32° WNW visible
20 May -2.5 22:56:45 10° WNW 23:00:00 42° N 23:03:14 10° ENE visible
21 May -3.4 00:33:46 10° WNW 00:37:05 65° NNE 00:37:05 65° NNE visible
21 May -2.6 22:09:10 10° W 22:12:25 45° N 22:15:41 10° ENE visible
21 May -3.0 23:46:17 10° WNW 23:49:36 53° NNE 23:51:02 29° ENE visible
22 May -1.4 01:23:09 10° WNW 01:23:58 16° WNW 01:23:58 16° WNW visible
22 May -2.7 22:58:46 10° WNW 23:02:02 46° N 23:05:01 12° E visible
23 May -2.8 00:35:37 10° WNW 00:37:56 39° W 00:37:56 39° W visible
23 May -2.6 22:11:14 10° WNW 22:14:27 42° N 22:17:42 10° ENE visible
23 May -3.8 23:48:07 10° WNW 23:51:31 86° NNE 23:51:57 65° ESE visible
24 May -3.4 23:00:38 10° WNW 23:03:59 65° NNE 23:05:58 22° E visible
25 May -1.7 00:37:38 10° W 00:38:54 19° W 00:38:54 19° W visible
25 May -3.1 22:13:08 10° WNW 22:16:27 53° NNE 22:19:46 10° E visible
25 May -3.2 23:50:01 10° WNW 23:52:57 44° SW 23:52:57 44° SW visible
